Delta Virtual Airport Information Service

Fort Lauderdale Hollywood International Airport

ICAO: KFLL Country: United States
Latitude: 26.0726 Longitude: -80.1527
Latest Arrival : DAL1009 (1A) (KATL-KFLL) Latest Departure : NKS174 (KFLL-KLGA)


WX CaptureLIVE
Data provided by noaa.gov | Fetched at 05:39:54

METAR : KFLL 270953Z COR 35007KT 10SM FEW032 OVC042 19/14 A3013 RMK AO2 SLP201 T01890144 PWINO TSNO

TAF : KFLL 270953Z COR 35007KT 10SM FEW032 OVC042 19/14 A3013 RMK AO2 SLP201 T01890144 PWINO TSNO


Runway Data for KFLL
Data provided by openaviationdata.com

Runway ID Mag Var Hdg Length Elevation Surface ILS Freq ILS Id ILS Slope
09L -5 95° 8994 ft 9 ft Asphalt 110.1 ILHI 3
09R -5 95° 5272 ft 9 ft Asphalt 108.5 IFLL 0
13 -5 140° 6938 ft 9 ft Asphalt 109.35 ILID 0
27L -5 275° 5272 ft 9 ft Asphalt -- -- --
27R -5 275° 8994 ft 9 ft Asphalt 110.7 IUDL 3
31 -5 320° 6938 ft 9 ft Asphalt -- -- --

Fort Lauderdale Hollywood International Airport, United States
Use only for reference purposes



Not for navigational purposes.